Weather reports worldwide

Advertisment
Ioannina, Greece (16642): temperature & dewpoint: 11.08.2018 23:00:00 - 17.08.2018 23:00:00 (EEST)Ioannina, Greece (16642): reduced air pressure: 11.08.2018 23:00:00 - 17.08.2018 23:00:00 (EEST)Ioannina, Greece (16642): visibility: 11.08.2018 23:00:00 - 17.08.2018 23:00:00 (EEST)
Date & Time tt [°C] td [°C] ppp [hPa] vv [km]
17.08.2018 23:00:00 19,0 17,0 - 10
17.08.2018 22:00:00 20,0 18,0 - 10
17.08.2018 21:00:00 23,0 17,2 1012,2 10
17.08.2018 20:00:00 26,0 18,0 - 10
17.08.2018 19:00:00 30,0 13,0 - 10
17.08.2018 18:00:00 31,0 12,6 1009,6 10
17.08.2018 17:00:00 29,0 14,0 - 10
17.08.2018 16:00:00 29,0 14,0 - 10
17.08.2018 15:00:00 29,4 14,3 1010,6 10
17.08.2018 14:00:00 28,0 14,0 - 10
17.08.2018 13:00:00 26,0 16,0 - 10
17.08.2018 12:00:00 24,0 15,8 1013,1 10
17.08.2018 11:00:00 22,0 15,0 - 10
17.08.2018 10:00:00 19,0 14,0 - 10
17.08.2018 09:00:00 16,8 14,7 1014,5 10
17.08.2018 08:00:00 - - - -
17.08.2018 07:00:00 - - - -
17.08.2018 06:00:00 - - - -
17.08.2018 05:00:00 - - - -
17.08.2018 04:00:00 - - - -
17.08.2018 03:00:00 - - - -
17.08.2018 02:00:00 - - - -
17.08.2018 01:00:00 18,0 17,0 - 10
17.08.2018 00:00:00 19,0 18,0 1012,7 10
16.08.2018 23:00:00 19,0 18,0 - 10
16.08.2018 22:00:00 20,0 17,0 - 10
16.08.2018 21:00:00 21,6 17,4 1011,4 10
16.08.2018 20:00:00 25,0 19,0 - 10
16.08.2018 19:00:00 28,0 16,0 - 10
16.08.2018 18:00:00 27,0 16,0 1010,2 10
16.08.2018 17:00:00 - - - -
16.08.2018 16:00:00 - - - -
16.08.2018 15:00:00 26,8 16,6 1011,5 10
16.08.2018 14:00:00 24,0 16,0 - 10
16.08.2018 13:00:00 23,0 17,0 - 10
16.08.2018 12:00:00 22,2 16,3 1013,3 10
16.08.2018 11:00:00 21,0 16,0 - 10
16.08.2018 10:00:00 19,0 17,0 - 10
16.08.2018 09:00:00 17,6 16,6 1012,5 10
16.08.2018 08:00:00 17,0 17,0 - 10
16.08.2018 07:00:00 - - - -
16.08.2018 06:00:00 - - - -
16.08.2018 05:00:00 - - - -
16.08.2018 04:00:00 - - - -
16.08.2018 03:00:00 - - - -
16.08.2018 02:00:00 - - - -
16.08.2018 01:00:00 - - - -
16.08.2018 00:00:00 - - - -
15.08.2018 23:00:00 - - - -
15.08.2018 22:00:00 22,0 21,0 - 10
15.08.2018 21:00:00 23,0 19,6 1011,6 10
15.08.2018 20:00:00 24,0 18,0 - 10
15.08.2018 19:00:00 25,0 17,0 - 10
15.08.2018 18:00:00 25,2 17,6 1010,5 10
15.08.2018 17:00:00 - - - -
15.08.2018 16:00:00 - - - -
15.08.2018 15:00:00 22,6 22,6 1012,2 5
15.08.2018 14:00:00 29,0 16,0 - 10
15.08.2018 13:00:00 28,0 17,0 - 10
15.08.2018 12:00:00 28,0 17,6 1010,2 10
15.08.2018 11:00:00 26,0 17,0 - 10
15.08.2018 10:00:00 24,0 17,0 - 10
15.08.2018 09:00:00 20,6 18,4 1011,4 10
15.08.2018 08:00:00 19,0 18,0 - 10
15.08.2018 07:00:00 - - - -
15.08.2018 06:00:00 - - - -
15.08.2018 05:00:00 - - - -
15.08.2018 04:00:00 - - - -
15.08.2018 03:00:00 - - - -
15.08.2018 02:00:00 - - - -
15.08.2018 01:00:00 - - - -
15.08.2018 00:00:00 - - - -
14.08.2018 23:00:00 - - - -
14.08.2018 22:00:00 24,0 20,0 - 10
14.08.2018 21:00:00 25,8 20,0 1010,7 10
14.08.2018 20:00:00 27,0 19,0 - 10
14.08.2018 19:00:00 28,0 19,0 - 10
14.08.2018 18:00:00 29,4 19,7 1009,5 10
14.08.2018 17:00:00 - - - -
14.08.2018 16:00:00 - - - -
14.08.2018 15:00:00 30,4 18,8 1010,7 10
14.08.2018 14:00:00 31,0 19,0 - 10
14.08.2018 13:00:00 30,0 19,0 - 10
14.08.2018 12:00:00 29,2 20,2 1011,8 10
14.08.2018 11:00:00 24,0 16,0 - 10
14.08.2018 10:00:00 22,0 17,0 - 10
14.08.2018 09:00:00 20,8 18,2 1014,0 10
14.08.2018 08:00:00 19,0 17,0 - 10
14.08.2018 07:00:00 - - - -
14.08.2018 06:00:00 - - - -
14.08.2018 05:00:00 - - - -
14.08.2018 04:00:00 - - - -
14.08.2018 03:00:00 - - - -
14.08.2018 02:00:00 - - - -
14.08.2018 01:00:00 - - - -
14.08.2018 00:00:00 - - - -
13.08.2018 23:00:00 - - - -
13.08.2018 22:00:00 25,0 20,0 - 10
13.08.2018 21:00:00 26,2 21,1 1011,8 10
13.08.2018 20:00:00 28,0 21,0 - 10
13.08.2018 19:00:00 30,0 20,0 - 10
13.08.2018 18:00:00 30,6 20,1 1010,9 10
13.08.2018 17:00:00 33,0 16,0 - 10
13.08.2018 16:00:00 33,0 16,0 - 10
13.08.2018 15:00:00 31,8 15,1 1011,9 10
13.08.2018 14:00:00 31,0 16,0 - 10
13.08.2018 13:00:00 29,0 16,0 - 10
13.08.2018 12:00:00 28,0 16,5 1013,8 10
13.08.2018 11:00:00 24,0 16,0 - 10
13.08.2018 10:00:00 22,0 17,0 - 10
13.08.2018 09:00:00 19,4 17,8 1015,5 10
13.08.2018 08:00:00 18,0 18,0 - 10
13.08.2018 07:00:00 - - - -
13.08.2018 06:00:00 - - - -
13.08.2018 05:00:00 - - - -
13.08.2018 04:00:00 - - - -
13.08.2018 03:00:00 - - - -
13.08.2018 02:00:00 - - - -
13.08.2018 01:00:00 - - - -
13.08.2018 00:00:00 - - - -
12.08.2018 23:00:00 - - - -
12.08.2018 22:00:00 22,0 19,0 - 10
12.08.2018 21:00:00 23,6 18,9 1014,5 10
12.08.2018 20:00:00 28,0 20,0 - 10
12.08.2018 19:00:00 29,0 19,0 - 10
12.08.2018 18:00:00 30,0 17,5 1013,3 10
12.08.2018 17:00:00 - - - -
12.08.2018 16:00:00 - - - -
12.08.2018 15:00:00 31,8 18,7 1014,0 10
12.08.2018 14:00:00 30,0 16,0 - 10
12.08.2018 13:00:00 29,0 16,0 - 10
12.08.2018 12:00:00 28,4 19,2 1015,8 10
12.08.2018 11:00:00 25,0 15,0 - 10
12.08.2018 10:00:00 23,0 17,0 - 10
12.08.2018 09:00:00 20,6 17,7 1017,3 10
12.08.2018 08:00:00 18,0 16,0 - 10
12.08.2018 07:00:00 - - - -
12.08.2018 06:00:00 - - - -
12.08.2018 05:00:00 - - - -
12.08.2018 04:00:00 - - - -
12.08.2018 03:00:00 - - - -
12.08.2018 02:00:00 - - - -
12.08.2018 01:00:00 - - - -
12.08.2018 00:00:00 - - - -
11.08.2018 23:00:00 - - - -

tt = temperature
td = dewpoint
ppp = reduced air pressure
vv = visibility

Next stations